M I D A S
Marine Information and Data Acquisition System
Tripno 1684 of the Zeeleeuw from 2009-04-29 06:57:01 to 2009-04-29 15:12:57
Back to CruiseResearch ActivitiesStationsMapUnderway DataData graphs

EquipmentUnitsComments
TimeDGPSUTC
LatitudeDGPSDM.mWGS84
LongitudeDGPSDM.mWGS84
SpeedMeteo Stationm/sRelative wind speed
DirectionMeteo StationdegRelative wind direction
TemperatureMeteo Stationdeg CelciusAir temperature
PressureMeteo StationPaAtmospheric pressure
HumidityMeteo Station%Relative humidity
Missing or incorrect values are displayed as -999
Metereological data collected by the RV Zeeleeuw from 2009-04-29 06:58:23 to 2009-04-29 15:18:10
                                                                                    Next 1000 lines
Time Latitude Longitude Speed Direction Temperature Pressure Humidity
2009-04-29 06:58:33 51°13.663 2°55.953 0.1 337 9.5 100760 83
2009-04-29 06:58:38 51°13.664 2°55.95 0.1 282 9.5 100760 83
2009-04-29 06:58:44 51°13.665 2°55.945 0.1 339 9.5 100760 83
2009-04-29 06:58:49 51°13.666 2°55.941 0.1 344 9.5 100760 83
2009-04-29 06:58:54 51°13.668 2°55.937 0.1 347 9.5 100760 83
2009-04-29 06:59:00 51°13.669 2°55.931 0.1 348 9.5 100760 83
2009-04-29 06:59:06 51°13.671 2°55.925 0.5 352 9.5 100760 83
2009-04-29 06:59:12 51°13.673 2°55.918 0.6 355 9.5 100760 83
2009-04-29 06:59:17 51°13.675 2°55.912 1.1 32 9.6 100760 83
2009-04-29 06:59:22 51°13.677 2°55.906 1.2 77 9.6 100760 83
2009-04-29 06:59:27 51°13.68 2°55.899 1.1 20 9.6 100750 83
2009-04-29 06:59:32 51°13.682 2°55.893 1.3 75 9.6 100750 83
2009-04-29 06:59:37 51°13.684 2°55.885 1.1 29 9.6 100760 83
2009-04-29 06:59:42 51°13.686 2°55.878 1.4 78 9.6 100760 83
2009-04-29 06:59:47 51°13.689 2°55.871 1.8 25 9.6 100760 83
2009-04-29 06:59:52 51°13.691 2°55.863 1.6 75 9.6 100760 83
2009-04-29 06:59:57 51°13.693 2°55.856 1.6 27 9.6 100750 83
2009-04-29 07:00:02 51°13.696 2°55.849 1.7 77 9.6 100750 83
2009-04-29 07:00:07 51°13.698 2°55.841 1.4 27 9.6 100760 83
2009-04-29 07:00:12 51°13.701 2°55.833 1.4 83 9.6 100760 83
2009-04-29 07:00:17 51°13.703 2°55.826 1.2 28 9.6 100760 83
2009-04-29 07:00:22 51°13.706 2°55.818 1.6 73 9.6 100760 83
2009-04-29 07:00:27 51°13.708 2°55.811 1.4 25 9.6 100760 82
2009-04-29 07:00:32 51°13.711 2°55.803 1.4 76 9.6 100760 82
2009-04-29 07:00:37 51°13.714 2°55.796 1.6 26 9.6 100760 82
2009-04-29 07:00:42 51°13.717 2°55.789 1.2 78 9.6 100760 82
2009-04-29 07:00:47 51°13.72 2°55.781 1.6 20 9.5 100760 82
2009-04-29 07:00:52 51°13.724 2°55.774 1.4 79 9.5 100760 82
2009-04-29 07:00:57 51°13.728 2°55.767 1.1 20 9.5 100750 82
2009-04-29 07:01:02 51°13.732 2°55.76 1.2 78 9.5 100750 82
2009-04-29 07:01:07 51°13.736 2°55.752 2 24 9.5 100760 82
2009-04-29 07:01:12 51°13.74 2°55.746 1.5 73 9.5 100760 82
2009-04-29 07:01:17 51°13.745 2°55.739 1.6 28 9.5 100760 82
2009-04-29 07:01:22 51°13.749 2°55.732 1.6 82 9.5 100760 82
2009-04-29 07:01:27 51°13.754 2°55.726 1.7 21 9.5 100760 82
2009-04-29 07:01:32 51°13.759 2°55.72 1.4 73 9.5 100760 82
2009-04-29 07:01:37 51°13.764 2°55.714 2.2 26 9.5 100750 82
2009-04-29 07:01:42 51°13.769 2°55.709 1.9 77 9.5 100750 82
2009-04-29 07:01:47 51°13.774 2°55.704 1.9 27 9.5 100750 82
2009-04-29 07:01:52 51°13.779 2°55.698 1.4 75 9.5 100750 82
2009-04-29 07:01:57 51°13.784 2°55.693 1.4 25 9.5 100750 82
2009-04-29 07:02:02 51°13.789 2°55.688 1.9 78 9.5 100750 82
2009-04-29 07:02:07 51°13.795 2°55.683 1.7 20 9.5 100760 82
2009-04-29 07:02:12 51°13.8 2°55.677 1.7 82 9.5 100760 82
2009-04-29 07:02:17 51°13.806 2°55.673 1.3 22 9.5 100760 81
2009-04-29 07:02:22 51°13.811 2°55.668 1 77 9.5 100760 81
2009-04-29 07:02:27 51°13.816 2°55.664 1.1 21 9.4 100750 82
2009-04-29 07:02:32 51°13.821 2°55.659 1 82 9.4 100750 82
2009-04-29 07:02:37 51°13.827 2°55.655 1.6 19 9.5 100760 81
2009-04-29 07:02:42 51°13.832 2°55.651 1.6 79 9.5 100760 81
2009-04-29 07:02:47 51°13.838 2°55.647 1.9 20 9.4 100750 81
2009-04-29 07:02:52 51°13.843 2°55.643 1.6 75 9.4 100750 81
2009-04-29 07:02:57 51°13.848 2°55.64 1.9 22 9.4 100760 82
2009-04-29 07:03:02 51°13.854 2°55.637 1.4 73 9.4 100760 82
2009-04-29 07:03:07 51°13.86 2°55.634 1.3 26 9.5 100760 82
2009-04-29 07:03:12 51°13.865 2°55.632 1.4 82 9.5 100760 82
2009-04-29 07:03:17 51°13.871 2°55.63 1.6 25 9.4 100750 82
2009-04-29 07:03:22 51°13.876 2°55.628 1.3 83 9.4 100750 82
2009-04-29 07:03:27 51°13.882 2°55.627 1.3 27 9.5 100750 82
2009-04-29 07:03:32 51°13.887 2°55.627 1.3 50 9.5 100750 82
2009-04-29 07:03:37 51°13.893 2°55.627 1.2 20 9.5 100750 82
2009-04-29 07:03:42 51°13.899 2°55.627 2.3 80 9.5 100750 82
2009-04-29 07:03:47 51°13.904 2°55.628 2.3 25 9.5 100750 82
2009-04-29 07:03:52 51°13.909 2°55.629 2.1 55 9.5 100750 82
2009-04-29 07:03:57 51°13.914 2°55.631 1.9 26 9.5 100750 82
2009-04-29 07:04:02 51°13.92 2°55.634 1.6 79 9.5 100750 82
2009-04-29 07:04:07 51°13.925 2°55.636 1.5 19 9.5 100760 82
2009-04-29 07:04:12 51°13.929 2°55.639 1.4 55 9.5 100760 82
2009-04-29 07:04:17 51°13.933 2°55.643 1.5 18 9.5 100750 82
2009-04-29 07:04:22 51°13.937 2°55.646 1.4 72 9.5 100750 82
2009-04-29 07:04:27 51°13.94 2°55.649 1.4 25 9.4 100750 81
2009-04-29 07:04:32 51°13.942 2°55.651 1.1 75 9.4 100750 81
2009-04-29 07:04:37 51°13.944 2°55.653 0.8 20 9.4 100750 81
2009-04-29 07:04:42 51°13.945 2°55.653 0.8 82 9.4 100750 81
2009-04-29 07:04:47 51°13.945 2°55.653 0.7 19 9.4 100750 81
2009-04-29 07:04:52 51°13.945 2°55.652 0.6 79 9.4 100750 81
2009-04-29 07:04:57 51°13.946 2°55.649 0.3 22 9.4 100750 81
2009-04-29 07:05:02 51°13.946 2°55.646 0.2 78 9.4 100750 81
2009-04-29 07:05:07 51°13.946 2°55.641 0.4 319 9.4 100760 81
2009-04-29 07:05:12 51°13.946 2°55.636 0.6 281 9.4 100760 81
2009-04-29 07:05:17 51°13.947 2°55.63 1.3 341 9.4 100750 82
2009-04-29 07:05:22 51°13.948 2°55.624 1.3 285 9.4 100750 82
2009-04-29 07:05:27 51°13.95 2°55.617 1.4 340 9.4 100750 82
2009-04-29 07:05:32 51°13.953 2°55.61 1.7 287 9.4 100750 82
2009-04-29 07:05:37 51°13.956 2°55.603 1.7 339 9.4 100750 82
2009-04-29 07:05:41 51°13.96 2°55.598 1.6 280 9.4 100750 82
2009-04-29 07:05:46 51°13.965 2°55.591 2.1 338 9.4 100750 82
2009-04-29 07:05:51 51°13.97 2°55.584 2.1 280 9.4 100750 82
2009-04-29 07:05:56 51°13.976 2°55.577 2.8 334 9.4 100750 82
2009-04-29 07:06:01 51°13.982 2°55.57 3 284 9.4 100750 82
2009-04-29 07:06:06 51°13.988 2°55.562 2.6 334 9.4 100750 82
2009-04-29 07:06:11 51°13.995 2°55.554 3.4 285 9.4 100750 82
2009-04-29 07:06:15 51°14.001 2°55.548 2.9 334 9.4 100750 82
2009-04-29 07:06:20 51°14.008 2°55.54 3 287 9.4 100750 82
2009-04-29 07:06:25 51°14.015 2°55.533 3.5 334 9.4 100750 82
2009-04-29 07:06:29 51°14.021 2°55.526 3.8 281 9.4 100750 82
2009-04-29 07:06:35 51°14.031 2°55.516 3.6 333 9.4 100750 82
2009-04-29 07:06:40 51°14.039 2°55.508 3.1 286 9.4 100750 82
2009-04-29 07:06:44 51°14.045 2°55.501 3.9 335 9.4 100750 82
2009-04-29 07:06:49 51°14.053 2°55.493 3.8 283 9.4 100750 82
2009-04-29 07:06:54 51°14.061 2°55.484 3.8 334 9.4 100750 82
2009-04-29 07:06:59 51°14.07 2°55.476 3.8 284 9.4 100750 82
2009-04-29 07:07:04 51°14.078 2°55.467 3.9 335 9.3 100750 82
2009-04-29 07:07:09 51°14.086 2°55.458 3.2 285 9.3 100750 82
2009-04-29 07:07:13 51°14.093 2°55.452 4.1 335 9.4 100750 82
2009-04-29 07:07:19 51°14.103 2°55.441 3.4 281 9.4 100750 82
2009-04-29 07:07:23 51°14.11 2°55.434 3.4 333 9.4 100750 83
2009-04-29 07:07:29 51°14.12 2°55.423 3.7 279 9.4 100750 83
2009-04-29 07:07:33 51°14.127 2°55.416 3.7 334 9.3 100750 83
2009-04-29 07:07:39 51°14.138 2°55.406 4.3 280 9.3 100750 83
2009-04-29 07:07:44 51°14.146 2°55.398 3.5 334 9.4 100750 83
2009-04-29 07:07:49 51°14.155 2°55.389 4.1 280 9.4 100750 83
2009-04-29 07:07:54 51°14.164 2°55.38 4 335 9.3 100750 83
2009-04-29 07:07:59 51°14.173 2°55.371 3.7 286 9.3 100750 83
2009-04-29 07:08:04 51°14.181 2°55.362 3.7 335 9.3 100750 83
2009-04-29 07:08:09 51°14.19 2°55.352 4.4 286 9.3 100750 83
2009-04-29 07:08:13 51°14.196 2°55.344 4.3 334 9.3 100750 83
2009-04-29 07:08:18 51°14.205 2°55.334 4.3 280 9.3 100750 83
2009-04-29 07:08:23 51°14.214 2°55.324 4.4 335 9.3 100760 83
2009-04-29 07:08:29 51°14.223 2°55.311 4.4 281 9.3 100760 83
2009-04-29 07:08:33 51°14.23 2°55.302 4.4 335 9.3 100750 83
2009-04-29 07:08:38 51°14.238 2°55.29 4.6 285 9.3 100750 83
2009-04-29 07:08:43 51°14.246 2°55.277 3.7 335 9.3 100750 83
2009-04-29 07:08:48 51°14.254 2°55.264 4.4 281 9.3 100750 83
2009-04-29 07:08:53 51°14.262 2°55.251 3.9 335 9.3 100750 83
2009-04-29 07:08:59 51°14.271 2°55.235 4.7 281 9.3 100750 83
2009-04-29 07:09:03 51°14.277 2°55.224 3.9 335 9.3 100750 83
2009-04-29 07:09:08 51°14.285 2°55.211 4.7 282 9.3 100750 83
2009-04-29 07:09:13 51°14.293 2°55.197 4.9 335 9.3 100750 84
2009-04-29 07:09:19 51°14.302 2°55.18 4.7 280 9.3 100750 84
2009-04-29 07:09:23 51°14.309 2°55.169 4.8 335 9.3 100760 84
2009-04-29 07:09:28 51°14.316 2°55.154 5.2 279 9.3 100760 84
2009-04-29 07:09:33 51°14.324 2°55.139 4.2 335 9.3 100760 84
2009-04-29 07:09:39 51°14.333 2°55.121 4.3 284 9.3 100760 84
2009-04-29 07:09:43 51°14.339 2°55.108 4.3 335 9.3 100750 84
2009-04-29 07:09:48 51°14.347 2°55.092 4.5 280 9.3 100750 84
2009-04-29 07:09:53 51°14.355 2°55.077 5.3 335 9.3 100750 84
2009-04-29 07:09:59 51°14.364 2°55.058 4.4 280 9.3 100750 84
2009-04-29 07:10:04 51°14.372 2°55.042 4.5 334 9.3 100750 84
2009-04-29 07:10:08 51°14.378 2°55.029 5.1 283 9.3 100750 84
2009-04-29 07:10:13 51°14.385 2°55.012 4.6 336 9.3 100750 84
2009-04-29 07:10:18 51°14.392 2°54.995 5.5 281 9.3 100750 84
2009-04-29 07:10:24 51°14.4 2°54.974 5.6 335 9.3 100750 84
2009-04-29 07:10:29 51°14.406 2°54.956 4.5 281 9.3 100750 84
2009-04-29 07:10:33 51°14.411 2°54.942 4.4 335 9.3 100750 84
2009-04-29 07:10:38 51°14.417 2°54.923 4.5 280 9.3 100750 84
2009-04-29 07:10:43 51°14.423 2°54.904 5.4 334 9.3 100750 84
2009-04-29 07:10:48 51°14.43 2°54.886 5.5 278 9.3 100750 84
2009-04-29 07:10:53 51°14.436 2°54.867 5.5 334 9.3 100750 84
2009-04-29 07:10:58 51°14.443 2°54.848 5.6 280 9.3 100750 84
2009-04-29 07:11:03 51°14.449 2°54.828 4.6 333 9.3 100750 84
2009-04-29 07:11:08 51°14.455 2°54.809 5.6 279 9.3 100750 84
2009-04-29 07:11:13 51°14.46 2°54.789 5.1 334 9.3 100750 84
2009-04-29 07:11:18 51°14.466 2°54.768 6.1 285 9.3 100750 84
2009-04-29 07:11:23 51°14.472 2°54.748 5.3 335 9.3 100750 84
2009-04-29 07:11:28 51°14.478 2°54.728 5.1 285 9.3 100750 84
2009-04-29 07:11:33 51°14.485 2°54.707 5 333 9.3 100750 84
2009-04-29 07:11:39 51°14.492 2°54.683 6.4 286 9.3 100750 84
2009-04-29 07:11:43 51°14.497 2°54.666 5.2 334 9.3 100750 84
2009-04-29 07:11:48 51°14.504 2°54.645 6.2 278 9.3 100750 84
2009-04-29 07:11:53 51°14.51 2°54.624 6.2 334 9.3 100750 85
2009-04-29 07:11:58 51°14.517 2°54.603 5.4 282 9.3 100750 85
2009-04-29 07:12:04 51°14.525 2°54.578 5.2 334 9.3 100750 85
2009-04-29 07:12:08 51°14.53 2°54.56 5.4 285 9.3 100750 85
2009-04-29 07:12:13 51°14.537 2°54.539 5.5 334 9.3 100750 85
2009-04-29 07:12:18 51°14.544 2°54.517 6.4 280 9.3 100750 85
2009-04-29 07:12:23 51°14.55 2°54.495 6.2 333 9.3 100750 85
2009-04-29 07:12:29 51°14.558 2°54.468 5.3 283 9.3 100750 85
2009-04-29 07:12:33 51°14.564 2°54.45 6.5 333 9.3 100750 85
2009-04-29 07:12:38 51°14.57 2°54.428 6.7 280 9.3 100750 85
2009-04-29 07:12:44 51°14.578 2°54.402 6.6 334 9.3 100760 85
2009-04-29 07:12:48 51°14.584 2°54.384 5.6 283 9.3 100760 85
2009-04-29 07:12:53 51°14.59 2°54.362 5.5 333 9.3 100750 85
2009-04-29 07:12:58 51°14.597 2°54.339 6.6 280 9.3 100750 85
2009-04-29 07:13:03 51°14.604 2°54.317 6.7 333 9.2 100760 85
2009-04-29 07:13:09 51°14.612 2°54.29 5.6 280 9.2 100760 85
2009-04-29 07:13:13 51°14.618 2°54.273 5.5 333 9.2 100750 85
2009-04-29 07:13:19 51°14.626 2°54.246 6.8 284 9.2 100750 85
2009-04-29 07:13:24 51°14.632 2°54.223 6.6 334 9.2 100760 85
2009-04-29 07:13:28 51°14.638 2°54.206 5.7 283 9.2 100760 85
2009-04-29 07:13:33 51°14.644 2°54.183 5.3 334 9.2 100750 86
2009-04-29 07:13:39 51°14.652 2°54.156 5.6 283 9.2 100750 86
2009-04-29 07:13:43 51°14.657 2°54.138 5.5 335 9.2 100750 86
2009-04-29 07:13:49 51°14.665 2°54.111 5.5 281 9.2 100750 86
2009-04-29 07:13:53 51°14.67 2°54.094 6.7 335 9.2 100760 86
2009-04-29 07:13:58 51°14.676 2°54.071 5.8 284 9.2 100760 86
2009-04-29 07:14:04 51°14.684 2°54.044 5.5 334 9.2 100760 86
2009-04-29 07:14:08 51°14.689 2°54.026 6.4 280 9.2 100760 86
2009-04-29 07:14:13 51°14.696 2°54.004 5.4 335 9.2 100760 86
2009-04-29 07:14:19 51°14.704 2°53.977 6.2 287 9.2 100760 86
2009-04-29 07:14:23 51°14.709 2°53.96 5.3 334 9.2 100760 86
2009-04-29 07:14:29 51°14.718 2°53.933 6.7 284 9.2 100760 86
2009-04-29 07:14:33 51°14.723 2°53.916 6.6 333 9.1 100760 86
2009-04-29 07:14:38 51°14.73 2°53.894 6.5 280 9.1 100760 86
2009-04-29 07:14:44 51°14.739 2°53.868 6.4 334 9.1 100760 86
2009-04-29 07:14:48 51°14.745 2°53.85 6.5 284 9.1 100760 86
2009-04-29 07:14:53 51°14.752 2°53.828 6.3 334 9.1 100760 86
2009-04-29 07:14:58 51°14.759 2°53.807 6.4 278 9.1 100760 86
2009-04-29 07:15:04 51°14.768 2°53.781 5.2 333 9.1 100760 86
2009-04-29 07:15:09 51°14.776 2°53.759 6.1 279 9.1 100760 86
2009-04-29 07:15:13 51°14.781 2°53.742 6.2 334 9.1 100760 86
2009-04-29 07:15:18 51°14.789 2°53.72 5.2 285 9.1 100760 86
2009-04-29 07:15:23 51°14.796 2°53.698 5.3 334 9.1 100760 86
2009-04-29 07:15:28 51°14.804 2°53.677 6.2 282 9.1 100760 86
2009-04-29 07:15:33 51°14.811 2°53.655 6.4 334 9 100760 86
2009-04-29 07:15:38 51°14.819 2°53.633 5.2 281 9 100760 86
2009-04-29 07:15:43 51°14.827 2°53.612 6.3 333 9 100760 86
2009-04-29 07:15:48 51°14.835 2°53.59 6.3 278 9 100760 86
2009-04-29 07:15:53 51°14.843 2°53.568 6.5 333 9 100760 86
2009-04-29 07:15:58 51°14.851 2°53.546 5 283 9 100760 86
2009-04-29 07:16:04 51°14.86 2°53.52 6.3 333 9 100760 87
2009-04-29 07:16:08 51°14.866 2°53.502 6.4 281 9 100760 87
2009-04-29 07:16:13 51°14.874 2°53.48 5.3 332 9 100760 87
2009-04-29 07:16:19 51°14.884 2°53.453 5.4 278 9 100760 87
2009-04-29 07:16:23 51°14.89 2°53.435 6.3 333 9 100760 86
2009-04-29 07:16:28 51°14.898 2°53.412 5.4 282 9 100760 86
2009-04-29 07:16:33 51°14.906 2°53.389 6.2 334 9 100760 86
2009-04-29 07:16:39 51°14.915 2°53.362 5.3 286 9 100760 86
2009-04-29 07:16:44 51°14.922 2°53.338 5.3 334 9 100760 86
2009-04-29 07:16:48 51°14.928 2°53.32 6.4 278 9 100760 86
2009-04-29 07:16:53 51°14.935 2°53.296 6.5 332 9 100770 86
2009-04-29 07:16:58 51°14.943 2°53.273 6.6 280 9 100770 86
2009-04-29 07:17:03 51°14.95 2°53.249 6.7 332 9 100760 87
2009-04-29 07:17:09 51°14.959 2°53.221 6.4 284 9 100760 87
2009-04-29 07:17:13 51°14.965 2°53.202 6.5 333 9 100760 87
2009-04-29 07:17:18 51°14.972 2°53.179 6.6 280 9 100760 87
2009-04-29 07:17:23 51°14.98 2°53.156 6.2 332 9 100760 87
2009-04-29 07:17:29 51°14.989 2°53.127 6.6 282 9 100760 87
2009-04-29 07:17:33 51°14.995 2°53.109 6.5 333 9 100760 87
2009-04-29 07:17:38 51°15.003 2°53.086 5.5 281 9 100760 87
2009-04-29 07:17:43 51°15.011 2°53.062 5.5 331 8.9 100770 87
2009-04-29 07:17:49 51°15.02 2°53.034 5.6 281 8.9 100770 87
2009-04-29 07:17:53 51°15.026 2°53.016 5.4 332 8.9 100760 87
2009-04-29 07:17:58 51°15.033 2°52.992 6.3 284 8.9 100760 87
2009-04-29 07:18:03 51°15.04 2°52.968 6.4 332 8.9 100760 87
2009-04-29 07:18:08 51°15.048 2°52.945 6.4 281 8.9 100760 87
2009-04-29 07:18:13 51°15.055 2°52.921 6.3 331 8.9 100760 87
2009-04-29 07:18:18 51°15.063 2°52.898 6.3 286 8.9 100760 87
2009-04-29 07:18:24 51°15.072 2°52.87 5.3 332 8.9 100760 87
2009-04-29 07:18:28 51°15.078 2°52.851 6.4 283 8.9 100760 87
2009-04-29 07:18:33 51°15.085 2°52.828 6.2 331 8.9 100760 87
2009-04-29 07:18:39 51°15.094 2°52.8 5.4 286 8.9 100760 87
2009-04-29 07:18:43 51°15.1 2°52.782 6.2 331 8.9 100760 87
2009-04-29 07:18:48 51°15.108 2°52.758 5.3 278 8.9 100760 87
2009-04-29 07:18:53 51°15.116 2°52.735 6.4 331 8.9 100760 87
2009-04-29 07:18:59 51°15.124 2°52.707 5.2 284 8.9 100760 87
2009-04-29 07:19:04 51°15.132 2°52.683 5.5 332 8.9 100760 87
2009-04-29 07:19:08 51°15.138 2°52.664 6 286 8.9 100760 87
2009-04-29 07:19:13 51°15.145 2°52.641 5.5 332 8.9 100760 87
2009-04-29 07:19:18 51°15.153 2°52.617 5.3 279 8.9 100760 87
2009-04-29 07:19:24 51°15.161 2°52.589 6.3 332 8.9 100760 87
2009-04-29 07:19:29 51°15.168 2°52.565 5.5 285 8.9 100760 87
2009-04-29 07:19:33 51°15.174 2°52.546 6.3 332 8.9 100760 87
2009-04-29 07:19:38 51°15.181 2°52.522 6.3 285 8.9 100760 87
2009-04-29 07:19:43 51°15.187 2°52.498 6.6 331 8.9 100760 87
2009-04-29 07:19:49 51°15.196 2°52.469 5.6 281 8.9 100760 87
2009-04-29 07:19:53 51°15.201 2°52.449 5.7 330 8.9 100760 87
2009-04-29 07:19:58 51°15.209 2°52.424 5.7 282 8.9 100760 87
2009-04-29 07:20:03 51°15.216 2°52.399 6.8 332 8.9 100770 87
2009-04-29 07:20:08 51°15.223 2°52.374 6.8 281 8.9 100770 87
2009-04-29 07:20:13 51°15.231 2°52.349 5.9 331 8.9 100760 88
2009-04-29 07:20:18 51°15.238 2°52.324 6.9 279 8.9 100760 88
2009-04-29 07:20:23 51°15.246 2°52.299 7.3 331 8.9 100760 88
2009-04-29 07:20:28 51°15.254 2°52.274 6.3 282 8.9 100760 88
2009-04-29 07:20:33 51°15.261 2°52.249 7.1 330 8.9 100760 88
2009-04-29 07:20:39 51°15.271 2°52.219 7.2 282 8.9 100760 88
2009-04-29 07:20:43 51°15.277 2°52.199 7.3 329 8.9 100770 88
2009-04-29 07:20:48 51°15.285 2°52.173 6 283 8.9 100770 88
2009-04-29 07:20:53 51°15.293 2°52.148 7.3 331 8.9 100760 87
2009-04-29 07:20:58 51°15.3 2°52.123 6.2 279 8.9 100760 87
2009-04-29 07:21:04 51°15.31 2°52.093 6.9 330 8.9 100760 87
2009-04-29 07:21:08 51°15.316 2°52.073 6.9 282 8.9 100760 87
2009-04-29 07:21:13 51°15.324 2°52.047 6.2 331 8.9 100760 87
2009-04-29 07:21:19 51°15.334 2°52.017 6.3 284 8.9 100760 87
2009-04-29 07:21:23 51°15.34 2°51.997 6.8 330 8.9 100760 87
2009-04-29 07:21:29 51°15.35 2°51.967 6.1 285 8.9 100760 87
2009-04-29 07:21:33 51°15.356 2°51.947 6.9 332 9 100760 87
2009-04-29 07:21:38 51°15.364 2°51.922 7.2 281 9 100760 87
2009-04-29 07:21:44 51°15.373 2°51.892 7 331 9 100760 87
2009-04-29 07:21:48 51°15.379 2°51.872 6.9 279 9 100760 87
2009-04-29 07:21:53 51°15.387 2°51.847 6.2 333 9 100760 87
2009-04-29 07:21:58 51°15.395 2°51.821 6.8 283 9 100760 87
2009-04-29 07:22:03 51°15.403 2°51.796 6.8 332 9 100760 87
2009-04-29 07:22:09 51°15.412 2°51.766 5.7 281 9 100760 87
2009-04-29 07:22:13 51°15.418 2°51.746 5.7 332 9 100760 85
2009-04-29 07:22:18 51°15.426 2°51.721 6.5 278 9 100760 85
2009-04-29 07:22:23 51°15.434 2°51.696 6.6 330 9 100770 85
2009-04-29 07:22:29 51°15.444 2°51.666 6.7 284 9 100770 85
2009-04-29 07:22:33 51°15.45 2°51.646 5.8 330 9 100760 85
2009-04-29 07:22:39 51°15.46 2°51.615 5.8 278 9 100760 85
2009-04-29 07:22:43 51°15.466 2°51.595 6.8 330 9 100760 85
2009-04-29 07:22:48 51°15.474 2°51.57 6.9 283 9 100760 85
2009-04-29 07:22:53 51°15.482 2°51.545 6.3 330 9 100760 85
2009-04-29 07:22:58 51°15.49 2°51.519 6.1 279 9 100760 85
2009-04-29 07:23:04 51°15.5 2°51.489 6 331 9 100760 85
2009-04-29 07:23:08 51°15.506 2°51.469 6.1 285 9 100760 85
2009-04-29 07:23:13 51°15.514 2°51.444 6.2 331 9 100760 85
2009-04-29 07:23:19 51°15.524 2°51.413 6.8 279 9 100760 85
2009-04-29 07:23:23 51°15.53 2°51.393 6.9 330 9 100760 85
2009-04-29 07:23:29 51°15.54 2°51.362 6.1 278 9 100760 85
2009-04-29 07:23:33 51°15.546 2°51.342 6.7 332 9 100760 85
2009-04-29 07:23:38 51°15.555 2°51.317 6.8 283 9 100760 85
2009-04-29 07:23:44 51°15.564 2°51.287 6.7 332 9 100760 85
2009-04-29 07:23:48 51°15.571 2°51.266 5.9 279 9 100760 85
2009-04-29 07:23:53 51°15.579 2°51.241 5.8 332 9 100760 85
2009-04-29 07:23:58 51°15.587 2°51.216 6.5 280 9 100760 85
2009-04-29 07:24:04 51°15.597 2°51.185 6.8 333 9 100770 85
2009-04-29 07:24:09 51°15.605 2°51.16 6.6 286 9 100770 85
2009-04-29 07:24:13 51°15.611 2°51.14 6.3 332 9 100760 85
2009-04-29 07:24:18 51°15.619 2°51.114 6.8 285 9 100760 85
2009-04-29 07:24:23 51°15.627 2°51.089 5.8 332 9 100770 85
2009-04-29 07:24:29 51°15.637 2°51.059 6.5 283 9 100770 85
2009-04-29 07:24:33 51°15.643 2°51.038 6.5 332 9.1 100760 85
2009-04-29 07:24:38 51°15.651 2°51.013 6.6 286 9.1 100760 85
2009-04-29 07:24:43 51°15.659 2°50.988 6.1 333 9.1 100760 85
2009-04-29 07:24:48 51°15.667 2°50.963 6.9 286 9.1 100760 85
2009-04-29 07:24:53 51°15.675 2°50.937 6.2 332 9.1 100760 85
2009-04-29 07:24:58 51°15.683 2°50.912 7.1 280 9.1 100760 85
2009-04-29 07:25:04 51°15.693 2°50.882 6 332 9.1 100770 85
2009-04-29 07:25:08 51°15.699 2°50.862 6.1 287 9.1 100770 85
2009-04-29 07:25:13 51°15.707 2°50.836 6.2 332 9.1 100760 85
2009-04-29 07:25:19 51°15.716 2°50.805 5.9 286 9.1 100760 85
2009-04-29 07:25:23 51°15.723 2°50.785 6.1 333 9.1 100760 85
2009-04-29 07:25:29 51°15.732 2°50.755 6 283 9.1 100760 85
2009-04-29 07:25:33 51°15.738 2°50.734 5.8 332 9.1 100760 85
2009-04-29 07:25:39 51°15.748 2°50.704 7 285 9.1 100760 85
2009-04-29 07:25:43 51°15.754 2°50.684 7.1 330 9.1 100760 85
2009-04-29 07:25:48 51°15.762 2°50.659 6.8 286 9.1 100760 85
2009-04-29 07:25:53 51°15.77 2°50.634 6 331 9.1 100760 85
2009-04-29 07:25:59 51°15.78 2°50.603 6.7 282 9.1 100760 85
2009-04-29 07:26:04 51°15.789 2°50.579 6 332 9.1 100760 85
2009-04-29 07:26:09 51°15.797 2°50.555 6.7 280 9.1 100760 85
2009-04-29 07:26:13 51°15.804 2°50.535 6.9 333 9.1 100760 85
2009-04-29 07:26:18 51°15.813 2°50.511 6.1 284 9.1 100760 85
2009-04-29 07:26:23 51°15.822 2°50.487 6.1 331 9.1 100770 85
2009-04-29 07:26:29 51°15.833 2°50.458 7 330 9.1 100770 85
2009-04-29 07:26:33 51°15.84 2°50.439 5.9 331 9.1 100770 85
2009-04-29 07:26:38 51°15.85 2°50.415 6.2 283 9.1 100770 85
2009-04-29 07:26:43 51°15.859 2°50.392 6.9 330 9.1 100760 85
2009-04-29 07:26:49 51°15.87 2°50.363 6.7 285 9.1 100760 85
2009-04-29 07:26:53 51°15.879 2°50.346 6 332 9.1 100760 85
2009-04-29 07:26:58 51°15.89 2°50.324 6.9 281 9.1 100760 85
2009-04-29 07:27:03 51°15.901 2°50.304 6.8 331 9.1 100760 85
2009-04-29 07:27:09 51°15.914 2°50.279 6.9 283 9.1 100760 85
2009-04-29 07:27:13 51°15.924 2°50.264 6.7 332 9.1 100760 85
2009-04-29 07:27:18 51°15.937 2°50.246 7 281 9.1 100760 85
2009-04-29 07:27:24 51°15.953 2°50.226 6.7 333 9.1 100760 85
2009-04-29 07:27:28 51°15.964 2°50.213 7 278 9.1 100760 85
2009-04-29 07:27:33 51°15.977 2°50.197 6.9 331 9.1 100770 87
2009-04-29 07:27:39 51°15.994 2°50.179 6.7 279 9.1 100770 87
2009-04-29 07:27:43 51°16.005 2°50.167 6.9 333 9.2 100760 87
2009-04-29 07:27:48 51°16.02 2°50.154 6.1 279 9.2 100760 87
2009-04-29 07:27:53 51°16.034 2°50.139 7.1 333 9.1 100760 87
2009-04-29 07:27:59 51°16.052 2°50.124 5.8 283 9.1 100760 87
2009-04-29 07:28:04 51°16.067 2°50.11 6.8 333 9.2 100770 87
2009-04-29 07:28:08 51°16.078 2°50.1 6.8 286 9.2 100770 87
2009-04-29 07:28:13 51°16.093 2°50.088 6.5 331 9.2 100760 87
2009-04-29 07:28:18 51°16.109 2°50.076 6 279 9.2 100760 87
2009-04-29 07:28:23 51°16.124 2°50.063 6.3 331 9.2 100770 87
2009-04-29 07:28:29 51°16.142 2°50.049 6.4 283 9.2 100770 87
2009-04-29 07:28:33 51°16.154 2°50.04 6.1 333 9.2 100770 87
2009-04-29 07:28:38 51°16.169 2°50.028 6.1 279 9.2 100770 87
2009-04-29 07:28:44 51°16.188 2°50.014 6.7 333 9.2 100760 87
2009-04-29 07:28:49 51°16.203 2°50.003 7.1 280 9.2 100760 87
2009-04-29 07:28:53 51°16.215 2°49.993 6.9 333 9.2 100760 87
2009-04-29 07:28:58 51°16.231 2°49.982 7.1 281 9.2 100760 87
2009-04-29 07:29:03 51°16.246 2°49.97 7.2 333 9.2 100760 87
2009-04-29 07:29:09 51°16.264 2°49.956 6.3 284 9.2 100760 87
2009-04-29 07:29:13 51°16.277 2°49.947 6.1 332 9.2 100760 87
2009-04-29 07:29:19 51°16.295 2°49.932 7.2 279 9.2 100760 87
2009-04-29 07:29:24 51°16.31 2°49.921 6.6 332 9.2 100760 87
2009-04-29 07:29:28 51°16.323 2°49.911 7 281 9.2 100760 87
2009-04-29 07:29:33 51°16.338 2°49.9 6.3 333 9.2 100760 87
2009-04-29 07:29:39 51°16.357 2°49.886 6.3 280 9.2 100760 87
2009-04-29 07:29:43 51°16.369 2°49.878 7.2 333 9.2 100760 87
2009-04-29 07:29:49 51°16.388 2°49.864 6.3 280 9.2 100760 87
2009-04-29 07:29:53 51°16.4 2°49.855 7.1 334 9.2 100760 87
2009-04-29 07:29:59 51°16.419 2°49.843 6.9 282 9.2 100760 87
2009-04-29 07:30:04 51°16.434 2°49.832 7.1 333 9.2 100760 87
2009-04-29 07:30:08 51°16.447 2°49.824 6.6 288 9.2 100760 87
2009-04-29 07:30:13 51°16.462 2°49.813 7.4 334 9.2 100760 87
2009-04-29 07:30:19 51°16.481 2°49.799 7.4 281 9.2 100760 87
2009-04-29 07:30:23 51°16.494 2°49.79 7.5 332 9.2 100760 87
2009-04-29 07:30:29 51°16.513 2°49.776 6.9 280 9.2 100760 87
2009-04-29 07:30:33 51°16.525 2°49.767 6.6 332 9.2 100760 87
2009-04-29 07:30:38 51°16.541 2°49.755 7.1 287 9.2 100760 87
2009-04-29 07:30:44 51°16.559 2°49.742 7.6 332 9.2 100760 87
2009-04-29 07:30:48 51°16.572 2°49.732 6.6 280 9.2 100760 87
2009-04-29 07:30:53 51°16.588 2°49.721 7.1 334 9.2 100760 87
2009-04-29 07:30:58 51°16.603 2°49.707 7 279 9.2 100760 87
2009-04-29 07:31:03 51°16.617 2°49.694 6.7 332 9.2 100770 86
2009-04-29 07:31:09 51°16.636 2°49.679 6.7 281 9.2 100770 86
2009-04-29 07:31:13 51°16.648 2°49.668 7.2 333 9.2 100760 86
2009-04-29 07:31:18 51°16.663 2°49.656 7.3 278 9.2 100760 86
2009-04-29 07:31:23 51°16.678 2°49.642 7.6 332 9.2 100760 86
2009-04-29 07:31:28 51°16.692 2°49.629 7.5 285 9.2 100760 86
2009-04-29 07:31:33 51°16.707 2°49.616 6.6 334 9.2 100760 86
2009-04-29 07:31:39 51°16.725 2°49.6 7.4 284 9.2 100760 86
2009-04-29 07:31:43 51°16.737 2°49.59 6.7 333 9.2 100760 86
2009-04-29 07:31:48 51°16.752 2°49.577 6.6 279 9.2 100760 86
2009-04-29 07:31:53 51°16.766 2°49.564 6.4 333 9.3 100760 86
2009-04-29 07:31:58 51°16.781 2°49.55 7 280 9.3 100760 86
2009-04-29 07:32:04 51°16.798 2°49.535 7 333 9.2 100760 87
2009-04-29 07:32:08 51°16.81 2°49.524 7 279 9.2 100760 87
2009-04-29 07:32:13 51°16.824 2°49.511 7.2 332 9.3 100770 87
2009-04-29 07:32:19 51°16.841 2°49.495 6.4 278 9.3 100770 87
2009-04-29 07:32:23 51°16.853 2°49.485 7.2 333 9.3 100770 86
2009-04-29 07:32:29 51°16.87 2°49.469 7.4 279 9.3 100770 86
2009-04-29 07:32:33 51°16.881 2°49.458 7.4 333 9.3 100760 86
2009-04-29 07:32:39 51°16.898 2°49.442 6.6 281 9.3 100760 86
2009-04-29 07:32:44 51°16.913 2°49.428 7.3 334 9.2 100770 85
2009-04-29 07:32:48 51°16.924 2°49.416 6.5 284 9.2 100770 85
2009-04-29 07:32:53 51°16.938 2°49.402 7.3 334 9.3 100760 86
2009-04-29 07:32:58 51°16.952 2°49.387 6.3 279 9.3 100760 86
2009-04-29 07:33:04 51°16.97 2°49.371 6.4 335 9.3 100770 86
2009-04-29 07:33:09 51°16.984 2°49.356 6.4 281 9.3 100770 86
2009-04-29 07:33:13 51°16.995 2°49.345 7.5 333 9.3 100760 86
2009-04-29 07:33:18 51°17.01 2°49.331 6.4 281 9.3 100760 86
2009-04-29 07:33:23 51°17.024 2°49.316 6.7 334 9.3 100770 86
2009-04-29 07:33:29 51°17.042 2°49.3 7.6 279 9.3 100770 86
2009-04-29 07:33:33 51°17.054 2°49.288 6.6 333 9.3 100760 86
2009-04-29 07:33:38 51°17.068 2°49.274 6.7 287 9.3 100760 86
2009-04-29 07:33:43 51°17.082 2°49.26 7.7 333 9.3 100760 85
2009-04-29 07:33:48 51°17.097 2°49.246 6.7 279 9.3 100760 85
2009-04-29 07:33:53 51°17.112 2°49.232 6.7 333 9.3 100760 86
2009-04-29 07:33:59 51°17.129 2°49.215 6.5 284 9.3 100760 86
2009-04-29 07:34:03 51°17.14 2°49.203 7.3 335 9.3 100760 86
2009-04-29 07:34:08 51°17.155 2°49.189 7.4 284 9.3 100760 86
2009-04-29 07:34:13 51°17.169 2°49.175 7.5 333 9.3 100760 86
2009-04-29 07:34:19 51°17.187 2°49.159 6.7 279 9.3 100760 86
2009-04-29 07:34:24 51°17.202 2°49.145 6.7 334 9.3 100770 86
2009-04-29 07:34:28 51°17.213 2°49.134 7.3 287 9.3 100770 86
2009-04-29 07:34:33 51°17.228 2°49.12 7.9 333 9.3 100770 87
2009-04-29 07:34:39 51°17.245 2°49.104 6.6 284 9.3 100770 87
2009-04-29 07:34:43 51°17.257 2°49.093 6.8 334 9.4 100760 86
2009-04-29 07:34:49 51°17.274 2°49.076 6.7 284 9.4 100760 86
2009-04-29 07:34:53 51°17.286 2°49.065 7.8 334 9.3 100760 86
2009-04-29 07:34:58 51°17.3 2°49.051 7.9 281 9.3 100760 86
2009-04-29 07:35:04 51°17.318 2°49.035 7.7 334 9.3 100760 85
2009-04-29 07:35:08 51°17.329 2°49.023 6.8 283 9.3 100760 85
2009-04-29 07:35:13 51°17.344 2°49.01 6.8 334 9.3 100760 86
2009-04-29 07:35:18 51°17.359 2°48.996 6.8 284 9.3 100760 86
2009-04-29 07:35:24 51°17.376 2°48.98 6.8 335 9.4 100770 86
2009-04-29 07:35:29 51°17.391 2°48.966 6.9 283 9.4 100770 86
2009-04-29 07:35:33 51°17.403 2°48.955 7.6 335 9.4 100770 86
2009-04-29 07:35:39 51°17.421 2°48.939 7 282 9.4 100770 86
2009-04-29 07:35:43 51°17.432 2°48.928 6.6 335 9.3 100760 86
2009-04-29 07:35:49 51°17.45 2°48.911 7.1 286 9.3 100760 86
2009-04-29 07:35:53 51°17.462 2°48.901 6.9 334 9.4 100760 86
2009-04-29 07:35:58 51°17.476 2°48.887 7 280 9.4 100760 86
2009-04-29 07:36:03 51°17.491 2°48.873 6.8 333 9.4 100760 86
2009-04-29 07:36:08 51°17.506 2°48.86 7.7 285 9.4 100760 86
2009-04-29 07:36:13 51°17.52 2°48.846 7.1 334 9.4 100760 86
2009-04-29 07:36:19 51°17.538 2°48.829 7.8 278 9.4 100760 86
2009-04-29 07:36:24 51°17.553 2°48.816 7.9 332 9.4 100760 87
2009-04-29 07:36:28 51°17.565 2°48.805 8.1 281 9.4 100760 87
2009-04-29 07:36:33 51°17.579 2°48.792 7.1 333 9.4 100770 87
2009-04-29 07:36:39 51°17.597 2°48.777 7.9 283 9.4 100770 87
2009-04-29 07:36:43 51°17.609 2°48.766 8.1 333 9.4 100760 86
2009-04-29 07:36:49 51°17.626 2°48.749 8 282 9.4 100760 86
2009-04-29 07:36:53 51°17.638 2°48.739 7 334 9.4 100760 86
2009-04-29 07:36:59 51°17.656 2°48.722 8 284 9.4 100760 86
2009-04-29 07:37:04 51°17.67 2°48.709 8.2 334 9.4 100770 87
2009-04-29 07:37:08 51°17.682 2°48.698 7.8 280 9.4 100770 87
2009-04-29 07:37:13 51°17.696 2°48.683 7.2 333 9.4 100760 86
2009-04-29 07:37:19 51°17.713 2°48.666 8 278 9.4 100760 86
2009-04-29 07:37:24 51°17.728 2°48.652 8.1 334 9.4 100760 86
2009-04-29 07:37:29 51°17.742 2°48.637 8.1 281 9.4 100760 86
2009-04-29 07:37:33 51°17.754 2°48.626 6.8 334 9.4 100770 86
2009-04-29 07:37:38 51°17.768 2°48.612 8.1 280 9.4 100770 86
2009-04-29 07:37:43 51°17.783 2°48.597 6.9 333 9.4 100760 86
2009-04-29 07:37:49 51°17.8 2°48.58 8.1 278 9.4 100760 86
2009-04-29 07:37:53 51°17.811 2°48.568 7 332 9.4 100760 86
2009-04-29 07:37:58 51°17.826 2°48.553 6.8 284 9.4 100760 86
2009-04-29 07:38:03 51°17.84 2°48.539 7.7 334 9.4 100760 86
2009-04-29 07:38:09 51°17.858 2°48.521 7.1 280 9.4 100760 86
2009-04-29 07:38:13 51°17.87 2°48.51 8.4 333 9.4 100760 86
2009-04-29 07:38:18 51°17.884 2°48.496 6.9 278 9.4 100760 86
2009-04-29 07:38:24 51°17.902 2°48.479 7.9 333 9.4 100760 86
2009-04-29 07:38:29 51°17.916 2°48.464 8.3 285 9.4 100760 86
2009-04-29 07:38:33 51°17.928 2°48.453 7.8 333 9.4 100770 87
2009-04-29 07:38:39 51°17.946 2°48.436 6.9 283 9.4 100770 87
2009-04-29 07:38:43 51°17.958 2°48.424 8 333 9.4 100760 86
2009-04-29 07:38:48 51°17.972 2°48.41 8 282 9.4 100760 86
2009-04-29 07:38:53 51°17.987 2°48.395 7.8 334 9.4 100770 87
2009-04-29 07:38:58 51°18.002 2°48.381 6.8 284 9.4 100770 87
2009-04-29 07:39:04 51°18.019 2°48.364 6.7 333 9.4 100770 87
2009-04-29 07:39:08 51°18.032 2°48.354 6.6 280 9.4 100770 87
2009-04-29 07:39:13 51°18.047 2°48.34 6.6 334 9.4 100770 86
2009-04-29 07:39:19 51°18.064 2°48.322 6.7 282 9.4 100770 86
2009-04-29 07:39:23 51°18.076 2°48.31 7.7 333 9.4 100770 86
2009-04-29 07:39:29 51°18.093 2°48.292 6.7 280 9.4 100770 86
2009-04-29 07:39:33 51°18.105 2°48.281 7.8 334 9.4 100770 86
2009-04-29 07:39:38 51°18.119 2°48.266 8.2 285 9.4 100770 86
2009-04-29 07:39:43 51°18.134 2°48.251 7.9 333 9.5 100770 86
2009-04-29 07:39:49 51°18.152 2°48.234 6.5 280 9.5 100770 86
2009-04-29 07:39:53 51°18.163 2°48.222 8.1 333 9.5 100770 86
2009-04-29 07:39:58 51°18.178 2°48.208 8 278 9.5 100770 86
2009-04-29 07:40:03 51°18.194 2°48.195 8 333 9.5 100770 87
2009-04-29 07:40:09 51°18.212 2°48.179 6.7 281 9.5 100770 87
2009-04-29 07:40:13 51°18.224 2°48.167 6.6 333 9.5 100770 86
2009-04-29 07:40:18 51°18.239 2°48.153 6.3 287 9.5 100770 86
2009-04-29 07:40:23 51°18.254 2°48.138 6.4 333 9.5 100770 87
2009-04-29 07:40:29 51°18.271 2°48.121 8 282 9.5 100770 87
2009-04-29 07:40:33 51°18.283 2°48.109 6.6 333 9.5 100760 86
2009-04-29 07:40:38 51°18.298 2°48.095 8 282 9.5 100760 86
2009-04-29 07:40:43 51°18.313 2°48.08 6.6 334 9.5 100770 86
2009-04-29 07:40:49 51°18.331 2°48.063 7.8 280 9.5 100770 86
2009-04-29 07:40:53 51°18.342 2°48.051 6.5 333 9.5 100770 86
2009-04-29 07:40:59 51°18.36 2°48.033 6.5 281 9.5 100770 86
2009-04-29 07:41:03 51°18.372 2°48.022 7.6 333 9.5 100770 86
2009-04-29 07:41:08 51°18.387 2°48.007 7.5 279 9.5 100770 86
2009-04-29 07:41:13 51°18.401 2°47.992 6.3 333 9.5 100770 86
2009-04-29 07:41:18 51°18.416 2°47.978 6.6 279 9.5 100770 86
2009-04-29 07:41:24 51°18.433 2°47.96 7.4 332 9.5 100770 86
2009-04-29 07:41:28 51°18.445 2°47.949 7.6 279 9.5 100770 86
2009-04-29 07:41:33 51°18.459 2°47.934 7.5 332 9.5 100770 86
2009-04-29 07:41:38 51°18.474 2°47.92 6.3 286 9.5 100770 86
2009-04-29 07:41:43 51°18.49 2°47.908 7.4 332 9.5 100770 86
2009-04-29 07:41:49 51°18.508 2°47.893 6.2 284 9.5 100770 86
2009-04-29 07:41:53 51°18.52 2°47.883 6.1 331 9.5 100770 85
2009-04-29 07:41:59 51°18.538 2°47.867 7.3 280 9.5 100770 85
2009-04-29 07:42:04 51°18.553 2°47.854 6.3 331 9.5 100770 86
2009-04-29 07:42:09 51°18.568 2°47.841 7.5 282 9.5 100770 86
2009-04-29 07:42:13 51°18.58 2°47.832 7.5 331 9.5 100770 86
2009-04-29 07:42:18 51°18.595 2°47.82 7.7 287 9.5 100770 86
2009-04-29 07:42:24 51°18.614 2°47.807 7.5 332 9.5 100770 86
2009-04-29 07:42:29 51°18.629 2°47.795 7.5 331 9.5 100770 86
2009-04-29 07:42:33 51°18.642 2°47.785 6.3 332 9.5 100770 86
2009-04-29 07:42:38 51°18.656 2°47.772 7.5 281 9.5 100770 86
2009-04-29 07:42:43 51°18.672 2°47.76 6.3 331 9.5 100770 86
2009-04-29 07:42:49 51°18.689 2°47.744 7.2 281 9.5 100770 86
2009-04-29 07:42:53 51°18.701 2°47.733 5.9 331 9.5 100770 86
2009-04-29 07:42:59 51°18.719 2°47.717 7.1 280 9.5 100770 86
2009-04-29 07:43:03 51°18.731 2°47.707 7.3 331 9.5 100770 85
2009-04-29 07:43:08 51°18.746 2°47.694 7.7 282 9.5 100770 85
2009-04-29 07:43:13 51°18.761 2°47.681 7.4 331 9.5 100770 85
2009-04-29 07:43:18 51°18.775 2°47.667 7.4 283 9.5 100770 85
2009-04-29 07:43:24 51°18.793 2°47.652 6.2 331 9.5 100770 86
2009-04-29 07:43:28 51°18.805 2°47.641 7.2 282 9.5 100770 86
2009-04-29 07:43:33 51°18.82 2°47.629 6.2 331 9.5 100770 85
2009-04-29 07:43:39 51°18.838 2°47.614 7.4 286 9.5 100770 85
2009-04-29 07:43:43 51°18.851 2°47.605 7.8 332 9.5 100770 86
2009-04-29 07:43:49 51°18.869 2°47.59 7.6 279 9.5 100770 86
2009-04-29 07:43:53 51°18.881 2°47.58 6.1 332 9.5 100770 85
2009-04-29 07:43:59 51°18.9 2°47.565 7.4 283 9.5 100770 85
2009-04-29 07:44:04 51°18.915 2°47.552 7.6 331 9.5 100770 86
2009-04-29 07:44:08 51°18.927 2°47.542 6.4 281 9.5 100770 86
2009-04-29 07:44:13 51°18.942 2°47.528 6.5 331 9.5 100770 86
2009-04-29 07:44:18 51°18.957 2°47.515 6.3 277 9.5 100770 86
2009-04-29 07:44:24 51°18.975 2°47.5 6.5 331 9.5 100770 86
2009-04-29 07:44:29 51°18.991 2°47.488 6.4 287 9.5 100770 86
2009-04-29 07:44:33 51°19.003 2°47.478 6.4 332 9.5 100770 85
2009-04-29 07:44:38 51°19.018 2°47.465 7.5 279 9.5 100770 85
2009-04-29 07:44:44 51°19.036 2°47.449 6.3 331 9.5 100770 86
2009-04-29 07:44:49 51°19.05 2°47.436 6.2 279 9.5 100770 86
2009-04-29 07:44:53 51°19.062 2°47.425 6.1 333 9.5 100770 86
2009-04-29 07:44:58 51°19.077 2°47.412 6.2 286 9.5 100770 86
2009-04-29 07:45:03 51°19.092 2°47.399 6 332 9.5 100770 86
2009-04-29 07:45:09 51°19.109 2°47.383 7.5 333 9.5 100770 86
2009-04-29 07:45:13 51°19.121 2°47.373 6.1 332 9.5 100770 86
2009-04-29 07:45:18 51°19.136 2°47.359 7.2 281 9.5 100770 86
2009-04-29 07:45:24 51°19.154 2°47.344 6.2 332 9.5 100770 86
2009-04-29 07:45:28 51°19.166 2°47.334 6.2 280 9.5 100770 86
2009-04-29 07:45:33 51°19.181 2°47.321 7.2 331 9.5 100770 86
2009-04-29 07:45:39 51°19.199 2°47.306 5.8 284 9.5 100770 86
2009-04-29 07:45:43 51°19.211 2°47.296 7.3 331 9.5 100770 86
2009-04-29 07:45:48 51°19.226 2°47.284 7.2 279 9.5 100770 86
2009-04-29 07:45:53 51°19.242 2°47.273 7.3 332 9.5 100770 85
2009-04-29 07:45:59 51°19.26 2°47.258 6.2 284 9.5 100770 85
2009-04-29 07:46:04 51°19.276 2°47.246 7.3 331 9.6 100770 86
2009-04-29 07:46:08 51°19.288 2°47.236 6.1 278 9.6 100770 86
2009-04-29 07:46:13 51°19.303 2°47.223 7.2 331 9.5 100770 86
2009-04-29 07:46:18 51°19.318 2°47.211 7.5 281 9.5 100770 86
2009-04-29 07:46:23 51°19.333 2°47.198 5.9 331 9.5 100770 86
2009-04-29 07:46:29 51°19.351 2°47.182 7.2 285 9.5 100770 86
2009-04-29 07:46:33 51°19.363 2°47.172 6 330 9.5 100770 86
2009-04-29 07:46:38 51°19.378 2°47.16 7.3 285 9.5 100770 86
2009-04-29 07:46:44 51°19.396 2°47.145 6.9 332 9.5 100770 86
2009-04-29 07:46:49 51°19.411 2°47.132 7 283 9.5 100770 86
2009-04-29 07:46:53 51°19.423 2°47.121 7 331 9.5 100770 86
2009-04-29 07:46:58 51°19.438 2°47.109 5.8 281 9.5 100770 86
2009-04-29 07:47:03 51°19.453 2°47.096 5.8 331 9.5 100770 85
2009-04-29 07:47:09 51°19.471 2°47.08 7.2 279 9.5 100770 85
2009-04-29 07:47:13 51°19.483 2°47.07 5.8 332 9.5 100770 86
2009-04-29 07:47:18 51°19.498 2°47.056 6.9 278 9.5 100770 86
2009-04-29 07:47:24 51°19.516 2°47.04 5.7 332 9.5 100770 86
2009-04-29 07:47:28 51°19.528 2°47.029 5.8 286 9.5 100770 86
2009-04-29 07:47:33 51°19.543 2°47.016 5.7 331 9.5 100770 86
2009-04-29 07:47:39 51°19.561 2°47.001 7 280 9.5 100770 86
2009-04-29 07:47:43 51°19.573 2°46.99 6.9 332 9.5 100770 86
2009-04-29 07:47:48 51°19.588 2°46.977 5.7 279 9.5 100770 86
2009-04-29 07:47:53 51°19.603 2°46.964 7.4 331 9.6 100770 86
2009-04-29 07:47:58 51°19.618 2°46.951 7.2 278 9.6 100770 86
2009-04-29 07:48:04 51°19.636 2°46.936 6.9 330 9.6 100770 86
2009-04-29 07:48:08 51°19.648 2°46.926 6.8 282 9.6 100770 86
2009-04-29 07:48:13 51°19.663 2°46.914 5.8 332 9.6 100770 86
2009-04-29 07:48:19 51°19.681 2°46.899 5.9 281 9.6 100770 86
2009-04-29 07:48:23 51°19.694 2°46.889 6.8 331 9.5 100770 86
2009-04-29 07:48:29 51°19.712 2°46.875 7.2 285 9.5 100770 86
2009-04-29 07:48:33 51°19.724 2°46.865 5.7 331 9.6 100770 85
2009-04-29 07:48:38 51°19.739 2°46.853 5.7 279 9.6 100770 85
2009-04-29 07:48:44 51°19.757 2°46.838 5.8 332 9.6 100770 86
2009-04-29 07:48:48 51°19.769 2°46.829 5.8 281 9.6 100770 86
2009-04-29 07:48:53 51°19.784 2°46.817 7.1 332 9.5 100770 86
2009-04-29 07:48:58 51°19.799 2°46.805 7 285 9.5 100770 86
2009-04-29 07:49:04 51°19.817 2°46.789 6.6 332 9.5 100770 85
2009-04-29 07:49:09 51°19.831 2°46.777 5.9 287 9.5 100770 85
2009-04-29 07:49:13 51°19.843 2°46.767 5.9 331 9.6 100780 86
2009-04-29 07:49:18 51°19.858 2°46.755 5.8 281 9.6 100780 86
2009-04-29 07:49:23 51°19.872 2°46.742 6 332 9.6 100770 86
2009-04-29 07:49:29 51°19.89 2°46.728 7 281 9.6 100770 86
2009-04-29 07:49:33 51°19.902 2°46.718 6.1 331 9.6 100770 85
2009-04-29 07:49:39 51°19.92 2°46.704 7.1 283 9.6 100770 85
2009-04-29 07:49:43 51°19.932 2°46.694 6.9 331 9.6 100770 85
2009-04-29 07:49:49 51°19.949 2°46.68 5.8 332 9.6 100770 85
2009-04-29 07:49:53 51°19.961 2°46.67 5.8 331 9.5 100770 85
2009-04-29 07:49:58 51°19.976 2°46.658 6 281 9.5 100770 85
2009-04-29 07:50:04 51°19.994 2°46.643 7 331 9.6 100780 85
2009-04-29 07:50:08 51°20.006 2°46.633 5.9 278 9.6 100780 85
2009-04-29 07:50:13 51°20.021 2°46.621 7 331 9.6 100780 85
2009-04-29 07:50:19 51°20.039 2°46.605 6.1 285 9.6 100780 85
2009-04-29 07:50:23 51°20.05 2°46.596 5.9 331 9.6 100780 85
2009-04-29 07:50:29 51°20.068 2°46.58 7.3 281 9.6 100780 85
2009-04-29 07:50:33 51°20.08 2°46.57 7.2 331 9.6 100780 84
2009-04-29 07:50:39 51°20.098 2°46.555 7 280 9.6 100780 84
2009-04-29 07:50:44 51°20.113 2°46.542 5.9 331 9.6 100780 85
2009-04-29 07:50:48 51°20.125 2°46.532 7 285 9.6 100780 85
2009-04-29 07:50:53 51°20.14 2°46.519 7.1 331 9.6 100770 85
2009-04-29 07:50:58 51°20.155 2°46.505 5.9 280 9.6 100770 85
2009-04-29 07:51:04 51°20.172 2°46.489 4.4 331 9.6 100780 84
2009-04-29 07:51:09 51°20.187 2°46.476 6 280 9.6 100780 84
2009-04-29 07:51:13 51°20.199 2°46.465 5.7 331 9.6 100780 84
2009-04-29 07:51:18 51°20.214 2°46.451 7 287 9.6 100780 84
2009-04-29 07:51:23 51°20.229 2°46.438 6 332 9.6 100780 84
2009-04-29 07:51:29 51°20.246 2°46.422 5.9 279 9.6 100780 84
2009-04-29 07:51:33 51°20.258 2°46.411 7 332 9.6 100770 84
2009-04-29 07:51:38 51°20.273 2°46.397 6.1 282 9.6 100770 84
2009-04-29 07:51:43 51°20.288 2°46.383 7.5 331 9.6 100780 84
2009-04-29 07:51:49 51°20.307 2°46.367 7.2 284 9.6 100780 84
2009-04-29 07:51:53 51°20.319 2°46.356 7.3 332 9.6 100780 85
2009-04-29 07:51:58 51°20.334 2°46.343 5.9 283 9.6 100780 85
2009-04-29 07:52:04 51°20.352 2°46.327 5.9 332 9.6 100780 85
2009-04-29 07:52:08 51°20.364 2°46.316 6.1 285 9.6 100780 85
2009-04-29 07:52:13 51°20.379 2°46.303 6 331 9.6 100780 85
2009-04-29 07:52:19 51°20.397 2°46.287 7.3 279 9.6 100780 85
2009-04-29 07:52:23 51°20.409 2°46.277 7.5 332 9.6 100780 84
2009-04-29 07:52:28 51°20.425 2°46.263 7.4 280 9.6 100780 84
2009-04-29 07:52:33 51°20.44 2°46.249 7.1 331 9.6 100780 84
2009-04-29 07:52:39 51°20.458 2°46.233 5.9 282 9.6 100780 84
2009-04-29 07:52:44 51°20.473 2°46.22 5.8 331 9.6 100780 84
2009-04-29 07:52:48 51°20.485 2°46.209 7.1 284 9.6 100780 84
2009-04-29 07:52:53 51°20.5 2°46.196 6.2 333 9.6 100780 84
2009-04-29 07:52:59 51°20.518 2°46.18 6.2 286 9.6 100780 84
2009-04-29 07:53:03 51°20.53 2°46.169 7 332 9.6 100780 84
2009-04-29 07:53:09 51°20.549 2°46.152 6 280 9.6 100780 84
2009-04-29 07:53:13 51°20.561 2°46.142 7 332 9.6 100780 84
2009-04-29 07:53:18 51°20.576 2°46.128 5.6 279 9.6 100780 84
2009-04-29 07:53:24 51°20.594 2°46.112 7.2 332 9.6 100780 84
2009-04-29 07:53:29 51°20.609 2°46.098 7.1 279 9.6 100780 84
2009-04-29 07:53:33 51°20.621 2°46.088 7.2 332 9.6 100780 84
2009-04-29 07:53:39 51°20.639 2°46.07 7.2 285 9.6 100780 84
2009-04-29 07:53:44 51°20.653 2°46.055 7.4 332 9.6 100780 84
2009-04-29 07:53:49 51°20.667 2°46.04 7.2 282 9.6 100780 84
2009-04-29 07:53:53 51°20.679 2°46.028 7 332 9.7 100780 83
2009-04-29 07:53:59 51°20.696 2°46.008 6.9 282 9.7 100780 83
2009-04-29 07:54:03 51°20.707 2°45.995 6 333 9.7 100780 84
2009-04-29 07:54:09 51°20.724 2°45.975 7.3 285 9.7 100780 84
2009-04-29 07:54:13 51°20.734 2°45.961 5.9 332 9.7 100780 84
2009-04-29 07:54:18 51°20.748 2°45.944 6 280 9.7 100780 84
2009-04-29 07:54:24 51°20.763 2°45.922 6 332 9.7 100780 84
2009-04-29 07:54:29 51°20.776 2°45.903 7.3 284 9.7 100780 84
2009-04-29 07:54:33 51°20.787 2°45.888 7.2 331 9.7 100780 84
2009-04-29 07:54:39 51°20.802 2°45.865 6.7 279 9.7 100780 84
2009-04-29 07:54:43 51°20.812 2°45.849 6.8 330 9.7 100780 84
2009-04-29 07:54:48 51°20.824 2°45.829 5.9 -999 9.7 100780 84
2009-04-29 07:54:53 51°20.837 2°45.81 7.2 331 9.7 100780 83
2009-04-29 07:54:59 51°20.851 2°45.786 5.8 284 9.7 100780 83
2009-04-29 07:55:04 51°20.863 2°45.766 7.3 332 9.7 100780 84
2009-04-29 07:55:08 51°20.874 2°45.751 5.9 286 9.7 100780 84
2009-04-29 07:55:13 51°20.886 2°45.732 7.3 332 9.7 100780 84
2009-04-29 07:55:19 51°20.901 2°45.709 5.8 283 9.7 100780 84
2009-04-29 07:55:23 51°20.912 2°45.693 6.3 333 9.7 100790 84
2009-04-29 07:55:29 51°20.927 2°45.67 6.1 279 9.7 100790 84
2009-04-29 07:55:33 51°20.937 2°45.655 7 332 9.7 100780 84
2009-04-29 07:55:38 51°20.949 2°45.635 7 286 9.7 100780 84
2009-04-29 07:55:44 51°20.965 2°45.612 6.9 332 9.7 100790 84
2009-04-29 07:55:49 51°20.977 2°45.593 5.8 279 9.7 100790 84
2009-04-29 07:55:53 51°20.987 2°45.577 6.8 332 9.7 100790 84
2009-04-29 07:55:58 51°20.999 2°45.557 5.9 285 9.7 100790 84
2009-04-29 07:56:04 51°21.014 2°45.533 7.2 331 9.7 100790 84
2009-04-29 07:56:09 51°21.026 2°45.514 7.3 280 9.7 100790 84
2009-04-29 07:56:13 51°21.036 2°45.498 7.3 333 9.7 100790 84
2009-04-29 07:56:18 51°21.048 2°45.478 5.7 279 9.7 100790 84
2009-04-29 07:56:24 51°21.063 2°45.455 7.1 331 9.7 100790 83
2009-04-29 07:56:29 51°21.076 2°45.435 7.1 281 9.7 100790 83
2009-04-29 07:56:33 51°21.086 2°45.42 6.9 331 9.7 100790 84
2009-04-29 07:56:39 51°21.101 2°45.397 5.8 286 9.7 100790 84
2009-04-29 07:56:43 51°21.111 2°45.382 7.2 330 9.8 100790 84
2009-04-29 07:56:48 51°21.124 2°45.363 7 284 9.8 100790 84
2009-04-29 07:56:53 51°21.137 2°45.344 5.9 330 9.7 100790 83
2009-04-29 07:56:58 51°21.149 2°45.325 6.9 286 9.7 100790 83
2009-04-29 07:57:04 51°21.165 2°45.303 5.9 331 9.7 100790 83
2009-04-29 07:57:08 51°21.175 2°45.289 7 280 9.7 100790 83
2009-04-29 07:57:13 51°21.188 2°45.271 5.8 332 9.7 100790 83
2009-04-29 07:57:19 51°21.203 2°45.249 5.7 284 9.7 100790 83
2009-04-29 07:57:23 51°21.213 2°45.235 6.9 332 9.7 100790 84
2009-04-29 07:57:29 51°21.229 2°45.215 6.7 287 9.7 100790 84
2009-04-29 07:57:33 51°21.24 2°45.201 7.1 330 9.8 100790 84
2009-04-29 07:57:39 51°21.255 2°45.181 6.9 284 9.8 100790 84
2009-04-29 07:57:44 51°21.27 2°45.167 5.6 329 9.8 100790 84
2009-04-29 07:57:48 51°21.28 2°45.154 6.6 283 9.8 100790 84
2009-04-29 07:57:53 51°21.295 2°45.141 7.4 330 9.8 100790 83
2009-04-29 07:57:58 51°21.309 2°45.127 7.4 279 9.8 100790 83
2009-04-29 07:58:04 51°21.326 2°45.112 5.7 330 9.8 100790 84
2009-04-29 07:58:09 51°21.341 2°45.099 6.8 282 9.8 100790 84
2009-04-29 07:58:13 51°21.352 2°45.089 6.8 331 9.8 100800 84
2009-04-29 07:58:18 51°21.367 2°45.077 6.9 282 9.8 100800 84
2009-04-29 07:58:23 51°21.382 2°45.065 5.9 332 9.8 100790 84
2009-04-29 07:58:29 51°21.399 2°45.051 5.6 279 9.8 100790 84
2009-04-29 07:58:33 51°21.411 2°45.041 6.7 332 9.8 100790 84
2009-04-29 07:58:39 51°21.429 2°45.027 5.5 279 9.8 100790 84
2009-04-29 07:58:43 51°21.441 2°45.018 7.1 331 9.8 100790 84
2009-04-29 07:58:49 51°21.459 2°45.004 5.7 286 9.8 100790 84
2009-04-29 07:58:53 51°21.47 2°44.994 6.9 330 9.8 100790 84
2009-04-29 07:58:58 51°21.485 2°44.983 6.7 280 9.8 100790 84
2009-04-29 07:59:04 51°21.503 2°44.969 7.2 331 9.8 100790 84
2009-04-29 07:59:08 51°21.515 2°44.959 5.7 286 9.8 100790 84
2009-04-29 07:59:13 51°21.53 2°44.948 7.2 331 9.8 100790 84
2009-04-29 07:59:19 51°21.548 2°44.935 5.8 280 9.8 100790 84
2009-04-29 07:59:23 51°21.56 2°44.925 7.1 331 9.8 100790 83
2009-04-29 07:59:29 51°21.579 2°44.912 7.2 280 9.8 100790 83
2009-04-29 07:59:33 51°21.591 2°44.903 7.2 331 9.8 100800 84
2009-04-29 07:59:39 51°21.609 2°44.889 5.8 280 9.8 100800 84
2009-04-29 07:59:44 51°21.624 2°44.876 7.3 330 9.8 100790 84
2009-04-29 07:59:48 51°21.636 2°44.866 6 286 9.8 100790 84
2009-04-29 07:59:53 51°21.651 2°44.854 7.2 332 9.8 100790 83
2009-04-29 07:59:59 51°21.669 2°44.839 6 286 9.8 100790 83
2009-04-29 08:00:04 51°21.684 2°44.827 7.3 332 9.8 100790 83
2009-04-29 08:00:09 51°21.699 2°44.815 7.2 280 9.8 100790 83
2009-04-29 08:00:13 51°21.711 2°44.805 6.1 332 9.9 100800 83
2009-04-29 08:00:18 51°21.726 2°44.794 7.2 283 9.9 100800 83
2009-04-29 08:00:24 51°21.744 2°44.78 6.3 332 9.9 100790 84
2009-04-29 08:00:29 51°21.759 2°44.768 7.6 280 9.9 100790 84
2009-04-29 08:00:33 51°21.771 2°44.758 7.4 331 9.9 100790 84
2009-04-29 08:00:38 51°21.786 2°44.747 7.3 286 9.9 100790 84
2009-04-29 08:00:43 51°21.802 2°44.735 6.1 331 9.9 100790 84
2009-04-29 08:00:49 51°21.821 2°44.72 6.1 -999 9.9 100790 84
2009-04-29 08:00:53 51°21.833 2°44.711 7.4 331 9.9 100790 84
2009-04-29 08:00:58 51°21.848 2°44.699 7.6 280 9.9 100790 84
2009-04-29 08:01:04 51°21.866 2°44.685 7.6 331 9.9 100790 84
2009-04-29 08:01:09 51°21.881 2°44.673 6.1 282 9.9 100790 84
2009-04-29 08:01:13 51°21.894 2°44.663 7.3 331 9.9 100800 84
2009-04-29 08:01:19 51°21.912 2°44.648 6.2 281 9.9 100800 84
2009-04-29 08:01:23 51°21.924 2°44.638 7.7 331 9.9 100790 84
2009-04-29 08:01:28 51°21.939 2°44.626 7.3 280 9.9 100790 84
2009-04-29 08:01:33 51°21.954 2°44.614 7.4 332 9.9 100790 84
2009-04-29 08:01:39 51°21.972 2°44.6 7.2 279 9.9 100790 84
2009-04-29 08:01:44 51°21.987 2°44.588 7.1 331 9.9 100800 84
2009-04-29 08:01:48 51°21.999 2°44.578 5.9 280 9.9 100800 84
2009-04-29 08:01:53 51°22.014 2°44.566 7.6 332 9.9 100800 84
2009-04-29 08:01:59 51°22.033 2°44.551 6.1 280 9.9 100800 84
2009-04-29 08:02:03 51°22.045 2°44.542 7.5 331 9.9 100800 84
2009-04-29 08:02:09 51°22.063 2°44.527 6 279 9.9 100800 84
2009-04-29 08:02:13 51°22.075 2°44.518 6 331 9.9 100800 84
2009-04-29 08:02:19 51°22.093 2°44.503 5.6 286 9.9 100800 84
2009-04-29 08:02:24 51°22.109 2°44.491 6.2 332 9.9 100790 84
2009-04-29 08:02:29 51°22.124 2°44.479 6.2 280 9.9 100790 84
2009-04-29 08:02:33 51°22.136 2°44.47 7.9 332 9.9 100800 84
2009-04-29 08:02:38 51°22.152 2°44.458 6.5 279 9.9 100800 84
2009-04-29 08:02:44 51°22.17 2°44.444 6.3 332 9.9 100800 84
2009-04-29 08:02:49 51°22.185 2°44.432 7.4 282 9.9 100800 84
2009-04-29 08:02:53 51°22.198 2°44.422 6.1 331 9.9 100800 84
2009-04-29 08:02:58 51°22.213 2°44.41 6.1 285 9.9 100800 84
2009-04-29 08:03:04 51°22.231 2°44.395 7.5 332 9.9 100800 84
2009-04-29 08:03:09 51°22.246 2°44.383 6.3 287 9.9 100800 84
2009-04-29 08:03:13 51°22.259 2°44.374 7.6 332 9.9 100800 84
2009-04-29 08:03:19 51°22.277 2°44.359 6.3 280 9.9 100800 84
2009-04-29 08:03:23 51°22.289 2°44.349 7.4 332 9.9 100800 84
2009-04-29 08:03:29 51°22.307 2°44.334 6.2 280 9.9 100800 84
2009-04-29 08:03:33 51°22.319 2°44.324 7.8 333 9.9 100800 84
2009-04-29 08:03:38 51°22.334 2°44.312 7.4 284 9.9 100800 84
2009-04-29 08:03:44 51°22.353 2°44.298 6.2 332 9.9 100800 84
2009-04-29 08:03:48 51°22.365 2°44.289 6.5 279 9.9 100800 84
2009-04-29 08:03:53 51°22.38 2°44.277 7.8 332 9.9 100800 84
2009-04-29 08:03:59 51°22.398 2°44.263 6.8 283 9.9 100800 84
2009-04-29 08:04:03 51°22.411 2°44.253 7.7 333 9.9 100800 84
2009-04-29 08:04:09 51°22.429 2°44.238 6.4 280 9.9 100800 84
2009-04-29 08:04:13 51°22.441 2°44.228 7.8 332 9.9 100800 84
2009-04-29 08:04:19 51°22.459 2°44.213 7.1 280 9.9 100800 84
2009-04-29 08:04:24 51°22.474 2°44.2 6.3 332 9.9 100800 84
2009-04-29 08:04:28 51°22.486 2°44.19 7.5 286 9.9 100800 84
2009-04-29 08:04:33 51°22.501 2°44.178 6.3 331 9.9 100800 84
2009-04-29 08:04:38 51°22.516 2°44.166 7.9 281 9.9 100800 84
2009-04-29 08:04:44 51°22.535 2°44.152 7.6 333 9.9 100800 83
2009-04-29 08:04:49 51°22.55 2°44.141 7.6 -999 9.9 100800 83
2009-04-29 08:04:53 51°22.562 2°44.131 7.7 332 9.9 100800 84
2009-04-29 08:04:58 51°22.577 2°44.119 6.3 285 9.9 100800 84
2009-04-29 08:05:04 51°22.595 2°44.105 7.5 331 9.9 100800 84
2009-04-29 08:05:09 51°22.611 2°44.092 6.5 284 9.9 100800 84
2009-04-29 08:05:13 51°22.623 2°44.082 6.4 332 9.9 100800 84
2009-04-29 08:05:19 51°22.64 2°44.067 6.3 281 9.9 100800 84
2009-04-29 08:05:24 51°22.655 2°44.055 7.6 333 9.9 100810 84
2009-04-29 08:05:29 51°22.67 2°44.043 6.2 286 9.9 100810 84
2009-04-29 08:05:33 51°22.682 2°44.034 6.2 332 9.9 100800 84
2009-04-29 08:05:39 51°22.701 2°44.02 7.5 279 9.9 100800 84
2009-04-29 08:05:43 51°22.713 2°44.01 6.1 333 9.9 100810 83
2009-04-29 08:05:49 51°22.731 2°43.997 6.2 283 9.9 100810 83
2009-04-29 08:05:53 51°22.743 2°43.987 7.6 333 9.9 100810 84
2009-04-29 08:05:59 51°22.76 2°43.972 6.4 280 9.9 100810 84
2009-04-29 08:06:04 51°22.775 2°43.96 6.3 333 10 100810 84
2009-04-29 08:06:08 51°22.787 2°43.95 7.6 281 10 100810 84
2009-04-29 08:06:13 51°22.802 2°43.938 7.6 333 10 100810 84
2009-04-29 08:06:19 51°22.82 2°43.922 6.3 284 10 100810 84
2009-04-29 08:06:23 51°22.831 2°43.911 6.2 331 10 100810 84
2009-04-29 08:06:29 51°22.849 2°43.895 7.1 283 10 100810 84
2009-04-29 08:06:33 51°22.861 2°43.885 7.5 332 10 100810 84
2009-04-29 08:06:39 51°22.878 2°43.869 7.2 284 10 100810 84
2009-04-29 08:06:44 51°22.893 2°43.856 7.5 332 10 100810 84
2009-04-29 08:06:48 51°22.904 2°43.845 7.3 -999 10 100810 84
2009-04-29 08:06:53 51°22.919 2°43.831 7.5 331 10 100810 84
2009-04-29 08:06:59 51°22.936 2°43.815 7.5 280 10 100810 84
2009-04-29 08:07:04 51°22.951 2°43.802 6.1 330 10 100810 84
2009-04-29 08:07:09 51°22.965 2°43.788 6 283 10 100810 84
2009-04-29 08:07:13 51°22.977 2°43.777 7.4 330 10 100810 83
2009-04-29 08:07:18 51°22.992 2°43.764 7.6 279 10 100810 83
2009-04-29 08:07:24 51°23.01 2°43.748 7.5 329 10 100810 84
2009-04-29 08:07:29 51°23.024 2°43.734 7.3 280 10 100810 84
2009-04-29 08:07:33 51°23.036 2°43.724 7.3 330 10 100810 84
2009-04-29 08:07:39 51°23.054 2°43.707 6 286 10 100810 84
2009-04-29 08:07:44 51°23.069 2°43.695 6.1 331 10 100810 84
2009-04-29 08:07:49 51°23.084 2°43.683 6 279 10 100810 84
2009-04-29 08:07:53 51°23.096 2°43.673 6 329 9.9 100810 84
2009-04-29 08:07:59 51°23.113 2°43.658 7.1 285 9.9 100810 84
2009-04-29 08:08:03 51°23.125 2°43.647 7.1 329 9.9 100810 84
2009-04-29 08:08:09 51°23.143 2°43.632 7.3 279 9.9 100810 84
2009-04-29 08:08:13 51°23.155 2°43.622 7.2 330 10 100810 84
2009-04-29 08:08:19 51°23.173 2°43.607 7 280 10 100810 84
2009-04-29 08:08:24 51°23.189 2°43.594 6 330 9.9 100810 84
2009-04-29 08:08:28 51°23.201 2°43.584 6.1 280 9.9 100810 84
2009-04-29 08:08:33 51°23.216 2°43.572 7.4 330 9.9 100810 84
2009-04-29 08:08:39 51°23.234 2°43.557 7 280 9.9 100810 84
2009-04-29 08:08:43 51°23.246 2°43.547 7.3 328 9.9 100810 84
2009-04-29 08:08:49 51°23.264 2°43.533 7.4 -999 9.9 100810 84
2009-04-29 08:08:53 51°23.276 2°43.524 7.5 330 9.9 100810 84
2009-04-29 08:08:59 51°23.293 2°43.51 7.4 281 9.9 100810 84
2009-04-29 08:09:04 51°23.309 2°43.498 7 329 10 100820 84
2009-04-29 08:09:09 51°23.323 2°43.485 5.9 279 10 100820 84
2009-04-29 08:09:13 51°23.335 2°43.476 7.2 329 10 100810 84
2009-04-29 08:09:18 51°23.35 2°43.464 6.1 285 10 100810 84
2009-04-29 08:09:24 51°23.368 2°43.45 6 329 10 100820 84
2009-04-29 08:09:29 51°23.384 2°43.438 7 282 10 100820 84
2009-04-29 08:09:33 51°23.396 2°43.429 5.9 330 9.9 100810 84
2009-04-29 08:09:38 51°23.411 2°43.418 5.9 285 9.9 100810 84
2009-04-29 08:09:43 51°23.426 2°43.406 7.1 329 10 100820 84
2009-04-29 08:09:49 51°23.444 2°43.393 7 279 10 100820 84
2009-04-29 08:09:53 51°23.457 2°43.384 6.1 330 9.9 100810 84
2009-04-29 08:09:59 51°23.475 2°43.371 6 279 9.9 100810 84
2009-04-29 08:10:03 51°23.487 2°43.361 6.9 331 9.9 100820 84
2009-04-29 08:10:09 51°23.505 2°43.347 5.9 280 9.9 100820 84
2009-04-29 08:10:13 51°23.517 2°43.338 5.7 329 10 100820 85
2009-04-29 08:10:18 51°23.532 2°43.327 5.8 283 10 100820 85
2009-04-29 08:10:24 51°23.55 2°43.313 5.7 330 9.9 100820 84
2009-04-29 08:10:28 51°23.562 2°43.304 5.8 286 9.9 100820 84
2009-04-29 08:10:33 51°23.577 2°43.292 5.8 331 9.9 100820 84
2009-04-29 08:10:39 51°23.596 2°43.278 7.2 285 9.9 100820 84
2009-04-29 08:10:43 51°23.608 2°43.269 6.2 330 9.9 100820 84
2009-04-29 08:10:49 51°23.626 2°43.254 7.6 -999 9.9 100820 84
2009-04-29 08:10:54 51°23.641 2°43.242 6.2 330 9.9 100820 84
2009-04-29 08:10:59 51°23.657 2°43.231 7.3 286 9.9 100820 84
2009-04-29 08:11:04 51°23.672 2°43.219 6 330 10 100820 85
2009-04-29 08:11:08 51°23.684 2°43.209 7.3 286 10 100820 85
2009-04-29 08:11:13 51°23.699 2°43.197 6.2 331 10 100820 85
2009-04-29 08:11:19 51°23.717 2°43.183 6 285 10 100820 85
2009-04-29 08:11:24 51°23.732 2°43.171 7 330 10 100820 84
2009-04-29 08:11:29 51°23.748 2°43.159 6.9 286 10 100820 84
2009-04-29 08:11:33 51°23.76 2°43.149 7.1 331 9.9 100820 84
2009-04-29 08:11:38 51°23.775 2°43.137 5.9 284 9.9 100820 84
2009-04-29 08:11:44 51°23.793 2°43.123 6.1 331 9.9 100820 85
2009-04-29 08:11:49 51°23.808 2°43.111 6.2 278 9.9 100820 85
2009-04-29 08:11:53 51°23.82 2°43.1 6.2 331 9.9 100820 84
2009-04-29 08:11:59 51°23.838 2°43.085 5.7 279 9.9 100820 84
2009-04-29 08:12:03 51°23.85 2°43.075 7.2 330 10 100820 84
2009-04-29 08:12:09 51°23.868 2°43.059 6.2 283 10 100820 84
2009-04-29 08:12:13 51°23.88 2°43.049 5.9 331 10 100820 85
2009-04-29 08:12:18 51°23.895 2°43.037 6.8 278 10 100820 85
2009-04-29 08:12:24 51°23.912 2°43.021 6.1 331 10 100820 85
2009-04-29 08:12:28 51°23.924 2°43.011 6.1 279 10 100820 85
2009-04-29 08:12:33 51°23.939 2°42.998 5.9 330 10 100820 85
2009-04-29 08:12:39 51°23.957 2°42.983 7.2 280 10 100820 85
2009-04-29 08:12:43 51°23.969 2°42.973 7.1 330 10 100820 85
2009-04-29 08:12:49 51°23.987 2°42.958 5.9 -999 10 100820 85
2009-04-29 08:12:53 51°23.999 2°42.948 7.2 332 10 100820 84
2009-04-29 08:12:59 51°24.018 2°42.934 6 286 10 100820 84
2009-04-29 08:13:04 51°24.033 2°42.922 7.2 330 10 100820 85
2009-04-29 08:13:08 51°24.045 2°42.912 6 280 10 100820 85
2009-04-29 08:13:13 51°24.06 2°42.901 7.1 331 10 100820 85
2009-04-29 08:13:19 51°24.078 2°42.886 5.7 286 10 100820 85
2009-04-29 08:13:24 51°24.093 2°42.874 5.7 332 10 100820 85
2009-04-29 08:13:29 51°24.108 2°42.861 7.1 285 10 100820 85
2009-04-29 08:13:33 51°24.12 2°42.851 7.1 330 10 100820 85
2009-04-29 08:13:39 51°24.138 2°42.836 6 281 10 100820 85
2009-04-29 08:13:44 51°24.154 2°42.823 7.3 331 10 100820 84
2009-04-29 08:13:49 51°24.168 2°42.81 5.8 284 10 100820 84
2009-04-29 08:13:53 51°24.181 2°42.8 7 331 10 100830 85
2009-04-29 08:13:58 51°24.196 2°42.787 6.1 285 10 100830 85
2009-04-29 08:14:04 51°24.214 2°42.772 6 330 10 100820 85
2009-04-29 08:14:09 51°24.229 2°42.759 7.1 280 10 100820 85
2009-04-29 08:14:13 51°24.241 2°42.749 6 329 10 100830 85
2009-04-29 08:14:18 51°24.256 2°42.737 5.8 280 10 100830 85
2009-04-29 08:14:24 51°24.274 2°42.721 7.2 329 10 100820 85
2009-04-29 08:14:29 51°24.289 2°42.709 7.2 280 10 100820 85
2009-04-29 08:14:33 51°24.301 2°42.699 5.7 330 10 100820 85
2009-04-29 08:14:39 51°24.319 2°42.684 5.8 284 10 100820 85
2009-04-29 08:14:43 51°24.331 2°42.674 5.8 331 10 100820 85
2009-04-29 08:14:49 51°24.349 2°42.659 7 -999 10 100820 85
2009-04-29 08:14:53 51°24.361 2°42.649 7.2 331 10 100830 85
2009-04-29 08:14:59 51°24.378 2°42.633 5.8 284 10 100830 85
2009-04-29 08:15:04 51°24.393 2°42.621 6 331 10 100830 85
2009-04-29 08:15:08 51°24.405 2°42.61 7.1 285 10 100830 85
2009-04-29 08:15:13 51°24.42 2°42.598 5.8 330 10 100820 85
2009-04-29 08:15:19 51°24.438 2°42.581 7.3 283 10 100820 85
2009-04-29 08:15:23 51°24.45 2°42.571 7 331 10 100830 85
2009-04-29 08:15:29 51°24.467 2°42.556 6.8 281 10 100830 85
2009-04-29 08:15:33 51°24.479 2°42.545 5.8 331 10 100820 85
2009-04-29 08:15:39 51°24.496 2°42.529 5.8 279 10 100820 85
2009-04-29 08:15:44 51°24.511 2°42.516 7 331 10 100830 85
2009-04-29 08:15:49 51°24.525 2°42.502 6.9 279 10 100830 85
2009-04-29 08:15:53 51°24.537 2°42.492 5.7 332 10 100830 85
2009-04-29 08:15:59 51°24.554 2°42.475 5.7 283 10 100830 85
2009-04-29 08:16:04 51°24.569 2°42.462 6.7 331 10 100830 85
2009-04-29 08:16:09 51°24.583 2°42.449 6.1 279 10 100830 85
2009-04-29 08:16:13 51°24.595 2°42.439 7 331 10 100830 85
2009-04-29 08:16:18 51°24.61 2°42.426 5.7 284 10 100830 85
2009-04-29 08:16:24 51°24.627 2°42.411 5.9 332 10 100830 85
2009-04-29 08:16:29 51°24.642 2°42.398 7.1 286 10 100830 85
2009-04-29 08:16:33 51°24.654 2°42.388 7.2 331 10 100830 85
2009-04-29 08:16:39 51°24.672 2°42.372 7.3 280 10 100830 85
2009-04-29 08:16:43 51°24.684 2°42.362 7.2 330 10 100830 85
2009-04-29 08:16:49 51°24.701 2°42.346 7.3 -999 10 100830 85
2009-04-29 08:16:53 51°24.713 2°42.336 7.1 331 10 100830 85
2009-04-29 08:16:58 51°24.728 2°42.323 5.9 281 10 100830 85
2009-04-29 08:17:04 51°24.746 2°42.308 6.9 331 10 100830 85
2009-04-29 08:17:08 51°24.757 2°42.298 7 286 10 100830 85
2009-04-29 08:17:13 51°24.772 2°42.285 5.9 332 10 100830 85
2009-04-29 08:17:19 51°24.79 2°42.27 7.1 284 10 100830 85
2009-04-29 08:17:23 51°24.802 2°42.26 5.9 331 10 100830 85
2009-04-29 08:17:29 51°24.82 2°42.245 7.1 286 10 100830 85
2009-04-29 08:17:34 51°24.835 2°42.232 6.8 331 10.1 100830 85
2009-04-29 08:17:39 51°24.85 2°42.219 7 280 10.1 100830 85
2009-04-29 08:17:44 51°24.865 2°42.207 7.5 331 10.1 100830 85
2009-04-29 08:17:48 51°24.876 2°42.197 6.1 -999 10.1 100830 85
2009-04-29 08:17:53 51°24.891 2°42.184 5.9 331 10.1 100830 85
2009-04-29 08:17:59 51°24.909 2°42.168 6.8 283 10.1 100830 85
2009-04-29 08:18:04 51°24.924 2°42.156 6.8 331 10.1 100830 85
2009-04-29 08:18:09 51°24.939 2°42.144 5.6 280 10.1 100830 85
2009-04-29 08:18:13 51°24.95 2°42.134 5.6 332 10.1 100830 85
2009-04-29 08:18:18 51°24.965 2°42.122 5.8 279 10.1 100830 85
2009-04-29 08:18:24 51°24.983 2°42.108 7.2 333 10.1 100830 85
2009-04-29 08:18:29 51°24.998 2°42.096 4.4 278 10.1 100830 85
2009-04-29 08:18:33 51°25.01 2°42.086 5.7 332 10.1 100840 85
2009-04-29 08:18:39 51°25.028 2°42.072 5.8 281 10.1 100840 85
2009-04-29 08:18:44 51°25.043 2°42.059 6.1 331 10.1 100830 86
2009-04-29 08:18:49 51°25.058 2°42.047 5.7 280 10.1 100830 86
2009-04-29 08:18:53 51°25.07 2°42.037 5.9 332 10.1 100840 85
2009-04-29 08:18:59 51°25.088 2°42.023 5.8 285 10.1 100840 85
2009-04-29 08:19:03 51°25.1 2°42.013 6.8 331 10.1 100830 85
2009-04-29 08:19:09 51°25.118 2°41.999 5.5 280 10.1 100830 85
2009-04-29 08:19:13 51°25.13 2°41.989 6.4 331 10.1 100830 86
2009-04-29 08:19:19 51°25.148 2°41.975 5.7 285 10.1 100830 86
2009-04-29 08:19:24 51°25.163 2°41.963 5.7 331 10.1 100830 85
2009-04-29 08:19:29 51°25.178 2°41.951 6.8 281 10.1 100830 85
2009-04-29 08:19:33 51°25.19 2°41.941 5.7 333 10.1 100840 86
2009-04-29 08:19:39 51°25.207 2°41.926 6.6 284 10.1 100840 86
2009-04-29 08:19:43 51°25.219 2°41.916 6.8 331 10.1 100830 86
2009-04-29 08:19:49 51°25.237 2°41.902 5.8 -999 10.1 100830 86
2009-04-29 08:19:54 51°25.252 2°41.89 5.8 331 10.1 100840 86
2009-04-29 08:19:59 51°25.267 2°41.878 5.7 285 10.1 100840 86
2009-04-29 08:20:04 51°25.282 2°41.866 6.8 331 10.1 100840 86
2009-04-29 08:20:08 51°25.294 2°41.856 6.8 279 10.1 100840 86
2009-04-29 08:20:13 51°25.309 2°41.844 5.6 331 10.1 100840 86
2009-04-29 08:20:19 51°25.327 2°41.829 6.8 280 10.1 100840 86
2009-04-29 08:20:24 51°25.342 2°41.817 5.5 331 10.1 100840 86
2009-04-29 08:20:29 51°25.357 2°41.805 5.4 284 10.1 100840 86
2009-04-29 08:20:33 51°25.369 2°41.796 6.6 332 10.1 100840 86
2009-04-29 08:20:38 51°25.383 2°41.784 5.4 288 10.1 100840 86
2009-04-29 08:20:44 51°25.401 2°41.769 5.4 331 10.1 100830 86
2009-04-29 08:20:49 51°25.416 2°41.756 5.6 285 10.1 100830 86
2009-04-29 08:20:53 51°25.428 2°41.746 5.5 330 10.1 100840 86
2009-04-29 08:20:58 51°25.443 2°41.734 6.7 278 10.1 100840 86
2009-04-29 08:21:04 51°25.46 2°41.718 6.7 331 10.1 100840 86
2009-04-29 08:21:09 51°25.475 2°41.706 6.5 284 10.1 100840 86
2009-04-29 08:21:13 51°25.487 2°41.696 5.5 330 10.1 100840 86
2009-04-29 08:21:18 51°25.502 2°41.683 6.6 281 10.1 100840 86
2009-04-29 08:21:24 51°25.519 2°41.667 5.2 330 10.1 100840 86
2009-04-29 08:21:29 51°25.534 2°41.655 5.2 281 10.1 100840 86
2009-04-29 08:21:33 51°25.546 2°41.644 6.4 331 10.1 100840 86
2009-04-29 08:21:39 51°25.563 2°41.628 5.2 282 10.1 100840 86
2009-04-29 08:21:43 51°25.575 2°41.618 5.4 331 10.1 100840 86